Regional Weather Roundup
Issued by NWS

Home | Current Version | Previous Version | Text Only | Print | Product List | Glossary Off
Versions: 1 2 3 4 5 6 7 8 9 10 11 12 13 14 15 16 17 18 19 20 21 22 23 24 25 26 27 28 29 30 31 32 33 34 35 36 37 38 39 40 41 42 43 44 45 46 47 48 49 50

000
ASUS43 KIND 222209
RWRIN

WEATHER ROUNDUP FOR INDIANA
NATIONAL WEATHER SERVICE INDIANAPOLIS IN
600 PM EDT SAT JUL 22 2017

NOTE: "FAIR" INDICATES FEW OR NO CLOUDS BELOW 12,000 FEET WITH NO
SIGNIFICANT WEATHER AND/OR OBSTRUCTIONS TO VISIBILITY.

* - STATION DOES NOT REPORT WEATHER SUCH AS PRECIPITATION OR FOG.

+ - STATION NOT QUALITY CONTROLLED BY THE NATIONAL WEATHER SERVICE.
    USE DATA WITH CAUTION...ESPECIALLY DEWPOINT AND RELATIVE
    HUMIDITY OBSERVATIONS.

INZ001>003-010>013-019-020-222300-
NORTHWEST INDIANA

CITY           SKY/WX    TMP DP  RH WIND       PRES   REMARKS
GARY /AIRPORT/ PTSUNNY   84  68  58 CALM      29.81F
KNOX *+        SUNNY     81  70  69 NW6       29.82S
LA PORTE +     SUNNY     82  69  66 NW5       29.82F
MICHIGAN CITY+ SUNNY     81  68  65 N5        29.82F
MONTICELLO +   SUNNY     83  72  70 NW7       29.82S
RENSSELAER +   CLOUDY    82  72  69 W5        29.83S
VALPARAISO     SUNNY     86  73  65 NE3       29.82F

$$

LMZ046-743>745-222300-
SOUTHERN LAKE MICHIGAN

STATION/POSITION TIME  TEMP    WIND        PRES    WAVE
                       AIR SEA DIR/SP/G            HT
                 (UTC) (F)     (DEG/KT/KT) (MB)    (FT)
BURNS HARBOR     2140   81      50/  4/  5 1009.8F
MICHIGAN CITY    2140   78      CALM  /  1   N/A
5NW MICH CITY    2200   77 78  130/  2/  2   N/A     1

$$

INZ004-005-014>016-021>024-222300-
NORTH CENTRAL INDIANA

CITY           SKY/WX    TMP DP  RH WIND       PRES   REMARKS
ELKHART        MOSUNNY   81  68  65 NW9       29.81S
GOSHEN         SUNNY     83  68  60 W13       29.81R
LOGANSPORT +   MOSUNNY   81  70  69 NW6       29.83F
PERU/GRISSOM   MOSUNNY   84  71  66 NW12      29.82S
ROCHESTER +    MOSUNNY   86  70  58 W6        29.83S
SOUTH BEND     MOSUNNY   80  70  71 NW10      29.82F
WARSAW +       MOSUNNY   82  68  61 W13       29.82S

$$

INZ006>009-017-018-025>027-222300-
NORTHEAST INDIANA

CITY           SKY/WX    TMP DP  RH WIND       PRES   REMARKS
AUBURN +       SUNNY     84  68  58 W9        29.81S
FORT WAYNE     PTSUNNY   83  71  67 W12       29.81S
HUNTINGTON +   PTSUNNY   82  72  72 W9        29.82S
KENDALLVILLE + MOSUNNY   83  70  64 NW5       29.81S

$$

INZ028-029-035-036-043>045-051>053-222300-
WEST CENTRAL INDIANA

CITY           SKY/WX    TMP DP  RH WIND       PRES   REMARKS
GREENCASTLE +  CLOUDY    84  72  65 N3        29.83F
LAFAYETTE      CLOUDY    82  75  79 NW5       29.82S
TERRE HAUTE    SUNNY     92  75  57 CALM      29.80F HX 103

$$

INZ030>032-037>040-046>048-054>057-064-065-222300-
CENTRAL INDIANA

CITY           SKY/WX    TMP DP  RH WIND       PRES   REMARKS
CP ATTERBURY + MOSUNNY   90  72  55 NW9       29.82F HX  96
COLUMBUS       PTSUNNY   90  66  45 N6        29.81F
FRANKFORT +    CLOUDY    85  76  74 N3        29.85F
GREENWOOD *+   CLOUDY   N/A N/A N/A NW8       29.83F
INDIANAPOLIS   CLOUDY    86  72  62 NW9       29.82S
-EAGLE CREEK   CLOUDY    85  73  67 N7        29.82S
KOKOMO +       PTSUNNY   84  73  69 NW10      29.84S
MARION +       CLOUDY    81  72  74 NW8       29.83F
MT COMFORT *+  PTSUNNY   84  70  61 NW10G20   29.84S
SHELBYVILLE    CLOUDY    87  71  58 N8        29.81F
ZIONSVILLE +   MOSUNNY   82  73  73 NW7       29.84F

$$

INZ033-034-041-042-049-050-058-059-222300-
EAST CENTRAL INDIANA

CITY           SKY/WX    TMP DP  RH WIND       PRES   REMARKS
MUNCIE         MOSUNNY   85  72  65 NW10      29.82F
RICHMOND +     PTSUNNY   82  72  69 NW10      29.84S

$$

INZ060-061-067>069-081>083-085>088-222300-
SOUTHWEST INDIANA

CITY           SKY/WX    TMP DP  RH WIND       PRES   REMARKS
EVANSVILLE     SUNNY     98  70  40 SW20G28   29.80R HX 105
HUNTINGBURG *+ MOSUNNY   95  75  52 SW12G20   29.82S HX 107

$$

INZ062-063-066-070>080-084-089>092-222300-
SOUTH CENTRAL AND SOUTHEAST INDIANA

CITY           SKY/WX    TMP DP  RH WIND       PRES   REMARKS
BEDFORD +      SUNNY     93  72  49 SW13      29.81F HX 100
BLOOMINGTON    SUNNY     93  71  48 SW13G18   29.82F HX 100
MADISON *+     PTSUNNY   91  72  52 SW8       29.84F HX  98
NORTH VERNON + CLOUDY    88  75  66 SW5       29.83F HX  97
SEYMOUR +      CLOUDY    95  75  52 W8        29.80F HX 107

$$





USA.gov is the U.S. government's official web portal to all federal, state and local government web resources and services.